Date String (YYYY-MM-DD hh:mm:ss) UTC,Instrument flags,absolute air pressure of the measurement (hPa),sample flow rate (lpm),inlet stack bypass flow (lpm),air temperature of the measurement (°C),ambient temperature measured by the external sensor (°C),aerosol sample conditioner tube jacket temperature (°C),OPC LED temperature (°C),internal box temperature (°C),relative humidity of the measurement (%),span deviation,mass concentration of particles derived from Lorenz-Mie calculation of OPC scattering (μg/m³),mass concentration of particles derived from Lorenz-Mie calculation of OPC scattering (μg/m³),mass concentration of particles derived from Lorenz-Mie calculation of OPC scattering (μg/m³)
DateTimeUTC,F1_M11,P_M11,Q1_M11,Q2_M11,T1_M11,T2_M11,T3_M11,T4_M11,T5_M11,U1_M11,ZSPAN_M11,X0_M11,X2_M11,X1_M11
2023-06-07 09:00:00,SystemResetWarning,0829.4,4.99,000.00,029.9,028.1,000.0,038.6,031.3,22.8,0000.0,0007.36,0003.61,0003.28
2023-06-07 09:01:00,SystemResetWarning,0829.5,5.00,000.00,029.9,028.1,000.0,038.5,031.3,22.7,0000.0,0007.30,0003.60,0003.27
2023-06-07 09:02:00,SystemResetWarning,0829.5,5.00,000.00,029.9,028.1,000.0,038.5,031.3,22.7,0000.0,0007.13,0003.57,0003.25
2023-06-07 09:03:00,SystemResetWarning,0829.6,5.00,000.00,029.9,028.1,000.0,038.5,031.3,22.6,0000.0,0007.54,0003.54,0003.24
2023-06-07 09:04:00,SystemResetWarning,0829.6,5.00,000.00,029.9,028.1,000.0,038.5,031.3,22.6,0000.0,0007.69,0003.51,0003.22
2023-06-07 09:05:00,SystemResetWarning,0829.6,5.00,000.00,029.9,028.1,000.0,038.5,031.3,22.7,0000.0,0007.73,0003.54,0003.22
2023-06-07 09:06:00,SystemResetWarning,0829.7,5.00,000.00,029.9,028.1,000.0,038.5,031.3,22.9,0000.0,0007.83,0003.57,0003.21
2023-06-07 09:07:00,SystemResetWarning,0829.7,5.01,000.00,029.9,028.1,000.0,038.5,031.3,23.0,0000.0,0008.25,0003.57,0003.22
2023-06-07 09:08:00,SystemResetWarning,0829.7,4.99,000.00,029.9,028.1,000.0,038.5,031.4,23.1,0000.0,0008.44,0003.59,0003.24
2023-06-07 09:09:00,SystemResetWarning,0829.7,5.00,000.00,029.9,028.2,000.0,038.5,031.4,23.1,0000.0,0008.15,0003.61,0003.26
2023-06-07 09:10:00,SystemResetWarning,0829.7,5.00,000.00,029.9,028.2,000.0,038.5,031.4,23.2,0000.0,0007.93,0003.63,0003.27
2023-06-07 09:11:00,SystemResetWarning,0829.7,4.99,000.00,029.9,028.2,000.0,038.5,031.4,23.3,0000.0,0007.68,0003.63,0003.28
2023-06-07 09:12:00,SystemResetWarning,0829.6,5.00,000.00,029.9,028.2,000.0,038.5,031.4,23.1,0000.0,0007.77,0003.64,0003.29
2023-06-07 09:13:00,SystemResetWarning,0829.6,5.01,000.00,029.9,028.2,000.0,038.5,031.4,23.1,0000.0,0007.82,0003.66,0003.30
2023-06-07 09:14:00,SystemResetWarning,0829.6,5.00,000.00,030.0,028.2,000.0,038.5,031.4,23.1,0000.0,0007.47,0003.67,0003.30
2023-06-07 09:15:00,SystemResetWarning,0829.7,5.01,000.00,030.0,028.3,000.0,038.5,031.4,23.1,0000.0,0007.26,0003.67,0003.31
2023-06-07 09:16:00,SystemResetWarning,0829.6,5.00,000.00,030.0,028.3,000.0,038.5,031.4,22.9,0000.0,0007.18,0003.65,0003.31
2023-06-07 09:17:00,SystemResetWarning,0829.7,5.01,000.00,030.0,028.3,000.0,038.5,031.4,22.8,0000.0,0007.04,0003.65,0003.32
2023-06-07 09:18:00,SystemResetWarning,0829.6,5.00,000.00,030.0,028.3,000.0,038.5,031.4,22.7,0000.0,0007.60,0003.67,0003.32
2023-06-07 09:19:00,SystemResetWarning,0829.6,5.00,000.00,030.0,028.3,000.0,038.5,031.5,22.7,0000.0,0007.45,0003.68,0003.32
2023-06-07 09:20:00,SystemResetWarning,0829.7,5.00,000.00,030.0,028.3,000.0,038.5,031.5,22.6,0000.0,0007.44,0003.67,0003.31
2023-06-07 09:21:00,SystemResetWarning,0829.7,5.00,000.00,030.0,028.3,000.0,038.5,031.4,22.6,0000.0,0007.44,0003.67,0003.29
2023-06-07 09:22:00,SystemResetWarning,0829.7,4.99,000.00,030.0,028.3,000.0,038.5,031.4,22.6,0000.0,0007.53,0003.68,0003.29
2023-06-07 09:23:00,SystemResetWarning,0829.7,5.00,000.00,030.0,028.3,000.0,038.5,031.5,22.6,0000.0,0007.46,0003.69,0003.30
2023-06-07 09:24:00,SystemResetWarning,0829.6,5.00,000.00,030.0,028.3,000.0,038.5,031.5,22.6,0000.0,0007.42,0003.68,0003.29
2023-06-07 09:25:00,SystemResetWarning,0829.7,5.00,000.00,030.0,028.3,000.0,038.5,031.5,22.5,0000.0,0007.36,0003.66,0003.29
2023-06-07 09:26:00,SystemResetWarning,0829.7,5.00,000.00,030.0,028.3,000.0,038.5,031.5,22.6,0000.0,0007.33,0003.66,0003.28
2023-06-07 09:27:00,SystemResetWarning,0829.7,5.01,000.00,030.0,028.3,000.0,038.5,031.5,22.7,0000.0,0007.37,0003.68,0003.28
2023-06-07 09:28:00,SystemResetWarning,0829.7,5.01,000.00,030.0,028.3,000.0,038.5,031.5,22.7,0000.0,0007.41,0003.67,0003.28
2023-06-07 09:29:00,SystemResetWarning,0829.7,5.01,000.00,030.0,028.3,000.0,038.5,031.5,22.7,0000.0,0005.91,0003.65,0003.28
2023-06-07 09:30:00,SystemResetWarning,0829.7,5.00,000.00,030.0,028.3,000.0,038.6,031.5,22.9,0000.0,0006.01,0003.67,0003.29
2023-06-07 09:31:00,SystemResetWarning,0829.7,5.00,000.00,030.0,028.3,000.0,038.6,031.5,22.9,0000.0,0006.04,0003.67,0003.29
2023-06-07 09:32:00,SystemResetWarning,0829.6,5.00,000.00,030.0,028.3,000.0,038.6,031.5,22.9,0000.0,0005.87,0003.65,0003.30
2023-06-07 09:33:00,SystemResetWarning,0829.7,5.00,000.00,030.0,028.3,000.0,038.6,031.5,23.0,0000.0,0005.71,0003.63,0003.30
2023-06-07 09:34:00,SystemResetWarning,0829.7,5.00,000.00,030.0,028.3,000.0,038.6,031.5,23.1,0000.0,0005.82,0003.65,0003.31
2023-06-07 09:35:00,SystemResetWarning,0829.7,5.00,000.00,030.0,028.3,000.0,038.6,031.5,23.3,0000.0,0005.98,0003.67,0003.33
2023-06-07 09:36:00,SystemResetWarning,0829.7,5.00,000.00,030.0,028.3,000.0,038.6,031.5,23.3,0000.0,0006.11,0003.70,0003.35
2023-06-07 09:37:00,SystemResetWarning,0829.7,5.00,000.00,030.0,028.3,000.0,038.6,031.5,23.1,0000.0,0006.23,0003.72,0003.37
2023-06-07 09:38:00,SystemResetWarning,0829.7,4.99,000.00,030.1,028.3,000.0,038.6,031.5,23.3,0000.0,0006.20,0003.73,0003.39
2023-06-07 09:39:00,SystemResetWarning,0829.7,5.01,000.00,030.0,028.3,000.0,038.6,031.5,23.4,0000.0,0006.28,0003.75,0003.40
2023-06-07 09:40:00,SystemResetWarning,0829.7,5.00,000.00,030.0,028.3,000.0,038.6,031.5,23.5,0000.0,0006.36,0003.77,0003.42
2023-06-07 09:41:00,SystemResetWarning,0829.7,5.00,000.00,030.1,028.3,000.0,038.6,031.5,23.5,0000.0,0006.20,0003.77,0003.43
2023-06-07 09:42:00,SystemResetWarning,0829.7,5.01,000.00,030.0,028.3,000.0,038.6,031.5,23.4,0000.0,0006.27,0003.79,0003.45
2023-06-07 09:43:00,SystemResetWarning,0829.6,5.00,000.00,030.1,028.3,000.0,038.6,031.5,23.4,0000.0,0006.39,0003.80,0003.46
2023-06-07 09:44:00,SystemResetWarning,0829.6,5.00,000.00,030.1,028.3,000.0,038.6,031.5,23.4,0000.0,0006.36,0003.82,0003.48
2023-06-07 09:45:00,SystemResetWarning,0829.6,5.00,000.00,030.1,028.3,000.0,038.6,031.5,23.5,0000.0,0006.25,0003.81,0003.48
2023-06-07 09:46:00,SystemResetWarning,0829.5,5.00,000.00,030.0,028.3,000.0,038.6,031.4,23.5,0000.0,0006.21,0003.81,0003.48
2023-06-07 09:47:00,SystemResetWarning,0829.5,5.00,000.00,030.1,028.3,000.0,038.6,031.5,23.5,0000.0,0006.27,0003.83,0003.50
2023-06-07 09:48:00,SystemResetWarning,0829.6,5.00,000.00,030.0,028.3,000.0,038.6,031.5,23.5,0000.0,0006.31,0003.84,0003.51
2023-06-07 09:49:00,SystemResetWarning,0829.6,5.01,000.00,030.0,028.3,000.0,038.6,031.5,23.9,0000.0,0006.45,0003.87,0003.53
2023-06-07 09:50:00,SystemResetWarning,0829.6,5.00,000.00,030.0,028.3,000.0,038.6,031.5,24.0,0000.0,0006.35,0003.88,0003.55
2023-06-07 09:51:00,SystemResetWarning,0829.6,5.00,000.00,030.0,028.3,000.0,038.6,031.5,23.7,0000.0,0006.38,0003.89,0003.56
2023-06-07 09:52:00,SystemResetWarning,0829.6,5.00,000.00,030.0,028.3,000.0,038.6,031.5,23.1,0000.0,0006.48,0003.90,0003.55
2023-06-07 09:53:00,SystemResetWarning,0829.7,4.99,000.00,030.0,028.3,000.0,038.6,031.5,22.8,0000.0,0006.50,0003.91,0003.54
2023-06-07 09:54:00,SystemResetWarning,0829.7,4.99,000.00,030.0,028.3,000.0,038.6,031.5,22.7,0000.0,0006.35,0003.89,0003.52
2023-06-07 09:55:00,SystemResetWarning,0829.7,5.00,000.00,030.0,028.3,000.0,038.6,031.5,22.4,0000.0,0006.75,0003.90,0003.50
2023-06-07 09:56:00,SystemResetWarning,0829.7,5.01,000.00,030.0,028.3,000.0,038.6,031.5,22.4,0000.0,0007.22,0003.89,0003.48
2023-06-07 09:57:00,SystemResetWarning,0829.7,5.01,000.00,030.0,028.3,000.0,038.6,031.5,22.4,0000.0,0007.24,0003.90,0003.47
2023-06-07 09:58:00,SystemResetWarning,0829.6,5.00,000.00,030.0,028.3,000.0,038.6,031.5,22.1,0000.0,0007.06,0003.85,0003.44
2023-06-07 09:59:00,SystemResetWarning,0829.6,4.99,000.00,030.0,028.3,000.0,038.6,031.5,22.0,0000.0,0006.96,0003.83,0003.42
